NOAA NWS Hourly Roundups by Site

Regional Weather Roundup for San Diego, CA

To Select Another Site Choose from List

Select Site:  

000
ASUS46 KSGX 191811
RWRSGX

SAN DIEGO HOURLY WEATHER ROUNDUP
NATIONAL WEATHER SERVICE SAN DIEGO CA
1000 AM PST TUE NOV 19 2019

NOTE: "FAIR" INDICATES FEW OR NO CLOUDS BELOW 12,000 FEET WITH NO
SIGNIFICANT WEATHER AND/OR OBSTRUCTIONS TO VISIBILITY.

CAZ042-043-060-061-PZZ750-775-191900-

GREATER SAN DIEGO AREA

CITY           SKY/WX    TMP DP  RH WIND       PRES   REMARKS
SAN DIEGO AP   PTSUNNY   76  50  40 SW8       29.77R
NATIONAL CITY    N/A     75  55  49 CALM      29.76R
BROWN FIELD    PTSUNNY   77  44  30 SW7       29.77R
MIRAMAR MCAS   PTSUNNY   86  52  30 S10       29.76S
MONTGOMERY FLD MOSUNNY   82  45  27 S9        29.77R
GILLESPIE FLD  MOSUNNY   72  37  28 VRB7      29.76F

$$

NORTH SAN DIEGO COUNTY

CITY           SKY/WX    TMP DP  RH WIND       PRES   REMARKS
CAMP PENDLETON PTSUNNY   77  33  20 CALM      29.74F
OCEANSIDE AP   PTSUNNY   78  35  21 E5        29.74F
OCEANSIDE HBR    N/A     76  40  27 CALM      29.77F
VISTA            N/A     73  37  27 CALM      29.72F
CARLSBAD       PTSUNNY   77  34  21 CALM      29.74F
DEL MAR          N/A     73  48  40 SW3       29.76S
LA JOLLA SCRIP   N/A     67  52  57 SW2       29.76R
FALLBROOK      FAIR      77  37  24 CALM      29.77F
ESCONDIDO        N/A     78  46  32 CALM      29.74F
SAN MARCOS       N/A     80  46  29 CALM      29.77F
POWAY            N/A     82  49  31 CALM      29.76F

$$

EAST SAN DIEGO COUNTY

CITY           SKY/WX    TMP DP  RH WIND       PRES   REMARKS
RAMONA         MOSUNNY   79  42  26 CALM      29.78F
SANTEE LAKES     N/A     75  44  33 S1        29.72F
LA MESA          N/A     76  44  31 CALM      29.71S
JAMUL            N/A     76  50  40 CALM      29.75S
CAMPO            N/A     72  43  35 N5        29.80F

$$

ORANGE COUNTY AND THE LOS ANGELES BASIN

CITY           SKY/WX    TMP DP  RH WIND       PRES   REMARKS
JOHN WAYNE AP  PTSUNNY   72  49  44 CALM      29.73F
LAGUNA BEACH     N/A     74  45  35 NW1       29.73F
LAKE FOREST FR   N/A     74  26  17 E6        29.61F
HUNTINGTON BCH   N/A     71  51  48 E3        29.74F
LOS ALAMITOS   PTSUNNY   72  37  28 E5        29.73F
FULLERTON      MOSUNNY   73  36  25 SE3       29.73F
LONG BEACH     MOSUNNY   72  37  28 E5        29.74F
L.A. AP        PTSUNNY   75  35  23 E6        29.74F
L.A. DOWNTOWN  SUNNY     75  34  22 VRB3      29.73F

$$

THE INLAND EMPIRE

CITY           SKY/WX    TMP DP  RH WIND       PRES   REMARKS
CORONA         MOSUNNY   70  42  36 W5        29.77F
CHINO          PTSUNNY   72  34  24 W3        29.78F
ONTARIO        PTSUNNY   76  27  16 CALM      29.77F
RIVERSIDE AP   PTSUNNY   72  34  24 VRB3      29.77F
MARCH ARB      PTSUNNY   73  28  19 SE6       29.80F
FRENCH VALLEY  FAIR      73  34  23 CALM      29.79F

$$

SAN BERNARDINO AND RIVERSIDE COUNTY MOUNTAINS

CITY           SKY/WX    TMP DP  RH WIND       PRES   REMARKS
BIG BEAR AP    PTSUNNY   54  27  35 W12       30.01F

$$

SOUTHERN DESERT INCLUDING THE COACHELLA VALLEY

CITY           SKY/WX    TMP DP  RH WIND       PRES   REMARKS
PALM SPRINGS   PTSUNNY   76  25  15 SE3       29.80F
THOUSAND PALMS   N/A     75  29  18 SE1       29.74F
PALM DESERT      N/A     77  35  21 CALM        N/A
THERMAL        MOSUNNY   77  27  15 CALM      29.76F
BORREGO AP     FAIR      73  25  16 SE6       29.78F
BLYTHE         PTSUNNY   73  32  22 S3        29.81S
IMPERIAL AP    CLOUDY    67  43  41 NW3       29.75F
EL CENTRO NAS  CLOUDY    65  34  31 N5        29.77F
YUMA AZ        CLOUDY    69  36  29 VRB6      29.82S
MEXICALI       PTSUNNY   68  37  32 NE9       29.78F

$$

UPPER DESERT

CITY           SKY/WX    TMP DP  RH WIND       PRES   REMARKS
HESPERIA         N/A     73  34  24 SW5       29.77F
APPLE VALLEY     N/A     73  33  23 W16       29.83F
PALMDALE       PTSUNNY   78  15   9 SW14      29.78F
LANCASTER      PTSUNNY   76  20  12 W14       29.78F
EDWARDS AFB    PTSUNNY   60  15  17 S5        29.76F
DAGGETT        MOSUNNY   66  17  15 CALM      29.78F
29 PALMS N     PTSUNNY   73  18  12 SE13      29.86F
NEEDLES        MOSUNNY   72  23  16 NE3       29.80F

$$

REGIONAL REPORTS

CITY           SKY/WX    TMP DP  RH WIND       PRES   REMARKS
SANTA BARBARA  MOSUNNY   67  55  65 VRB3      29.75F
SANDBERG       MOSUNNY   64  17  16 S10       29.89F
LAS VEGAS NV   PTSUNNY   65  26  23 N3        29.76F
PHOENIX AZ     PTSUNNY   72  27  18 E5        29.86F
TIJUANA        PTSUNNY   77  39  25 S5        29.79S
ENSENADA NW      N/A     69  32  25 CALM      29.75R

$$

OFFSHORE ISLANDS

CITY           SKY/WX    TMP DP  RH WIND       PRES   REMARKS
CATALINA ARPT  PTSUNNY   73  33  23 SE6       29.80F
SAN CLEMENTE I PTSUNNY   67  58  72 VRB6      29.80R
SAN NICOLAS IS PTSUNNY   61  54  77 W23       29.76F

$$

MARINE AND OFFSHORE BUOY REPORTS

STATION/POSITION SKY/WX   TEMP    WIND        PRES    VSBY  SWELL
                          AIR SEA DIR/SP/G                  HT/PER/DIR
                          (F)     (DEG/KT/KT) (MB)    (MI)  (FT/S/D)
TANNER BANKS               61 63  320/ 14/ 17 1009.0R         5/300/13
S CLEMENTE BASIN           66     250/  8/ 10 1008.0
SAN NICOLAS IS.               62                N/A           5/290/13
SO. S. ROSA ISLA           59 62  310/ 21/ 27 1008.8F         3/270/13
W. S. BARBARA CH           59     310/ 19/ 23 1008.4
M. S. BARBARA CH           62 63  270/  8/ 10 1007.8
S. MONICA BASIN            64 65  330/ 10/ 14 1007.5F         3/200/13
S PEDRO CHANNEL               66                N/A           2/200/13
OCEANSIDE OFFSHR              65                N/A           2/200/13
TORREY PINES OTR              64                N/A           2/200/13
SAN DIEGO BAY                 67              1007.3
IMPERIAL BEACH                62                N/A           2/230/13
POINT LOMA SOUTH              66                N/A           2/200/14

$$



 

View Past Reports for San Diego, CA.

Products Courtesy of NOAA-NWS
NWS Information Parsing Script by Ken True at Saratoga Weather - Script by SE Lincoln Weather.